This demonstration page uses our WeatherBlox Daily Observations layout. Learn more.

Left ArrowRight Arrow

Hourly Observations for September 27, 2022

Temp ( °F °C ) Dew Point ( °F °C ) Humidity (%) Winds ( mph kmh ) Pressure ( in mb ) Visibility ( mi km ) Precip ( " mm )
12:53 am 00:53 Clear 68 20 47 8.3 47 47 ESE 7 11 30.06 1018 10 16 0.00 0.00
1:53 am 01:53 Clear 65 18.3 47 8.3 52 52 E 6 9 30.07 1018 10 16 0.00 0.00
2:53 am 02:53 Clear 64 17.8 46 7.8 52 52 ESE 7 11 30.06 1018 10 16 0.00 0.00
3:53 am 03:53 Clear 64 17.8 46 7.8 52 52 ESE 7 11 30.05 1018 10 16 0.00 0.00
4:53 am 04:53 Clear 61 16.1 46 7.8 58 58 E 5 7 30.06 1018 10 16 0.00 0.00
5:53 am 05:53 Clear 62 16.7 46 7.8 56 56 Calm 30.07 1018 10 16 0.00 0.00
6:53 am 06:53 Clear 57 13.9 46 7.8 67 67 Calm 30.09 1019 10 16 0.00 0.00
7:53 am 07:53 Sunny 57 13.9 45 7.2 64 64 NE 3 6 30.11 1020 10 16 0.00 0.00
8:53 am 08:53 Sunny 64 17.8 45 7.2 50 50 Calm 30.14 1021 10 16 0.00 0.00
9:53 am 09:53 Sunny 71 21.7 46 7.8 41 41 SE 8 13 30.14 1021 10 16 0.00 0.00
10:53 am 10:53 undefined 76 24.4 46 7.8 35 35 SSE 9 15 30.15 1021 10 16 0.00 0.00
11:53 am 11:53 Sunny 79 26.1 47 8.3 32 32 S 10 17 30.14 1021 10 16 0.00 0.00
12:53 pm 12:53 Sunny 83 28.3 45 7.2 26 26 SSW 8 13 30.11 1020 10 16 0.00 0.00
1:53 pm 13:53 Sunny 85 29.4 45 7.2 25 25 S 8 13 30.09 1019 10 16 0.00 0.00
2:53 pm 14:53 Sunny 86 30 45 7.2 24 24 ESE 7 11 30.06 1018 10 16 0.00 0.00
3:53 pm 15:53 Sunny 86 30 43 6.1 22 22 ESE 8 13 30.03 1017 10 16 0.00 0.00
4:53 pm 16:53 Sunny 87 30.6 44 6.7 22 22 SE 9 15 30.02 1017 10 16 0.00 0.00
5:53 pm 17:53 Sunny 87 30.6 43 6.1 21 21 SE 10 17 30.01 1016 10 16 0.00 0.00
6:53 pm 18:53 Sunny 85 29.4 43 6.1 23 23 ESE 12 19 30.02 1017 10 16 0.00 0.00
7:53 pm 19:53 Clear 81 27.2 44 6.7 27 27 ESE 8 13 30.04 1017 10 16 0.00 0.00
8:53 pm 20:53 Clear 77 25 44 6.7 31 31 ESE 8 13 30.06 1018 10 16 0.00 0.00
9:53 pm 21:53 Clear 73 22.8 44 6.7 35 35 SE 7 11 30.08 1019 10 16 0.00 0.00
10:53 pm 22:53 Clear 73 22.8 41 5 31 31 ESE 8 13 30.08 1019 10 16 0.00 0.00
11:53 pm 23:53 Clear 69 20.6 40 4.4 34 34 ESE 8 13 30.09 1019 10 16 0.00 0.00

Powered by AerisWeather